sat.trackr.live / text

‹ back to catalog

STARLINK-32658

NORAD 62999 · 2025-031U

PAYLOAD ACTIVE UNKNOWN

§ Identity

Operator
Country
US
Launch date
2025-02-11
Launch site
AFETR
Launch vehicle
Mass (kg)
RCS (m²)

Purposes: comms

External: N2YO · Heavens-Above · Gunter

§ Orbital elements

Epoch: 2026-05-24T20:15:04.028832Z

Period
94.27 min
Inclination
43.0031°
Eccentricity
0.0000584
Mean motion
15.27595423 rev/d
Perigee alt
482.6 km
Apogee alt
483.4 km
Semi-major
6,861.1 km
B*
5.9331e-4
RAAN
73.1163°
Arg perigee
289.9441°
Mean anomaly
70.1348°
Rev number
7,274

§ Raw data

STARLINK-326581 62999U 25031U   26144.84379663  .00016108  00000+0  59331-3 0  99982 62999  43.0031  73.1163 0000584 289.9441  70.1348 15.27595423 72749

JSON: /api/v1/satellites/62999 · /tle

For live sub-satellite position, see the globe view (requires WebGL).

§ Visibility from observer

Set your observer location to see the next 7 days of passes ≥ 10°. The values pass through the URL so the page stays shareable.

No JS? Fill the form by hand. The geolocation button needs JavaScript.